This demonstration page uses our WeatherBlox Daily Observations layout. Learn more.

39.29038, -76.61219

Hourly Observations for July 21, 2019

Temp ( °F °C ) Dew Point ( °F °C ) Humidity (%) Winds ( mph kmh ) Pressure ( in mb ) Visibility ( mi km ) Precip ( " mm )
12:54 am 00:54 undefined 88 31.1 74 23.3 63 63 undefined N/A 29.86 1011 N/A 0 0
1:54 am 01:54 undefined 86 30 75 23.9 70 70 undefined N/A 29.87 1011 N/A 0 0
2:54 am 02:54 undefined 86 30 75 23.9 70 70 undefined N/A 29.86 1011 N/A 0 0
3:54 am 03:54 undefined 86 30 74 23.3 67 67 undefined N/A 29.83 1010 N/A 0 0
4:54 am 04:54 undefined 84 28.9 74 23.3 72 72 undefined N/A 29.83 1010 N/A 0 0
5:54 am 05:54 undefined 84 28.9 73 22.8 70 70 undefined N/A 29.83 1010 N/A 0 0
6:54 am 06:54 undefined 86 30 73 22.8 65 65 undefined N/A 29.86 1011 N/A 0 0
7:54 am 07:54 undefined 88 31.1 73 22.8 61 61 undefined N/A 29.89 1012 N/A 0 0
8:54 am 08:54 undefined 90 32.2 73 22.8 58 58 undefined N/A 29.89 1012 N/A 0 0
9:54 am 09:54 undefined 93 33.9 74 23.3 54 54 undefined N/A 29.88 1012 N/A 0 0
10:54 am 10:54 undefined 95 35 74 23.3 51 51 undefined N/A 29.88 1012 N/A 0 0
11:54 am 11:54 undefined 96 35.6 72 22.2 46 46 undefined N/A 29.87 1012 N/A 0 0
12:54 pm 12:54 undefined 97 36.1 72 22.2 45 45 undefined N/A 29.86 1011 N/A 0 0
1:54 pm 13:54 undefined 100 37.8 73 22.8 42 42 undefined N/A 29.86 1011 N/A 0 0
2:54 pm 14:54 undefined 98 36.7 72 22.2 43 43 undefined N/A 29.85 1011 N/A 0 0
3:54 pm 15:54 undefined 99 37.2 73 22.8 43 43 undefined N/A 29.83 1010 N/A 0 0
4:54 pm 16:54 undefined 99 37.2 74 23.3 45 45 undefined N/A 29.83 1010 N/A 0 0
5:54 pm 17:54 undefined 98 36.7 71 21.7 42 42 undefined N/A 29.83 1010 N/A 0 0
6:54 pm 18:54 undefined 97 36.1 72 22.2 45 45 undefined N/A 29.82 1010 N/A 0 0
7:54 pm 19:54 undefined 96 35.6 73 22.8 47 47 undefined N/A 29.82 1010 N/A 0 0
8:54 pm 20:54 undefined 88 31.1 68 20 52 52 undefined N/A 29.87 1012 N/A 0 0
9:54 pm 21:54 undefined 85 29.4 67 19.4 55 55 undefined N/A 29.87 1012 N/A 0 0
10:54 pm 22:54 undefined 81 27.2 69 20.6 67 67 undefined N/A 29.88 1012 N/A 0 0
11:54 pm 23:54 undefined 82 27.8 69 20.6 65 65 undefined N/A 29.87 1011 N/A 0 0

Powered by AerisWeather